Location: Noordwijk
(52.2400°N, 4.4500°E)
Time: 11:33:46
(UTC+00:00)

AO-85 - Pass Details

Date: 01 December 2022
Orbit: 516 x 753 km, 64.8° (Epoch: 04 January)

Event Time Altitude Azimuth Distance (km) Brightness Sun altitude
Rises 16:20:44 0° 224° (SW) 3,006 ? -7.0°
Reaches altitude 10° 16:23:07 10° 226° (SW) 2,057 ? -7.3°
Maximum altitude 16:27:47 81° 313° (NW) 632 ? -8.0°
Drops below altitude 10° 16:32:07 10° 42° (NE) 1,916 ? -8.6°
Enters shadow 16:32:17 - 42° (NE) 1,986 ? -8.6°
